GFSFLT2_250_spd_000.txt.gz
Wind_Speed
49 51 52 46 44 44 38 33 32 32 32 32 33 36 38 40 41 47 51 53 58 62 56 61 68 62 57 62 57 58 56 58
36 37 32 27 30 27 26 26 26 25 25 24 23 25 29 33 36 44 50 56 60 57 59 61 65 67 68 69 62 62 64 62
23 19 21 20 20 20 20 22 21 21 23 23 24 25 28 29 34 38 44 51 60 66 64 60 71 66 70 76 69 66 66 67
26 27 25 22 20 21 22 21 21 21 23 24 24 26 27 31 33 37 42 50 50 62 61 69 71 70 75 77 82 81 67 67
36 33 34 36 34 32 31 32 33 27 30 30 26 25 26 28 32 36 40 46 52 55 59 65 69 69 75 77 87 78 73 68
29 30 28 28 29 26 23 22 22 21 24 25 24 28 28 33 30 30 36 44 51 56 61 68 72 75 79 70 83 91 83 81
25 25 25 24 24 23 20 20 19 16 16 20 19 16 21 25 27 29 34 35 39 47 56 64 68 72 75 78 77 80 93 89
26 25 25 24 23 24 24 23 22 20 21 19 22 24 23 29 30 27 26 27 32 37 45 56 63 73 78 75 76 79 87 97
27 26 28 28 28 27 24 24 25 27 28 28 30 30 30 35 39 40 37 34 35 37 44 52 57 62 73 79 86 80 83 88
26 24 26 29 30 32 35 35 35 34 34 35 37 38 37 38 38 40 42 46 49 48 49 45 52 59 67 71 79 84 89 89
27 28 29 30 33 35 36 38 41 38 41 42 43 43 43 41 44 46 49 50 51 53 59 56 54 52 57 67 73 79 88 92
30 31 32 34 35 38 41 45 48 49 46 47 49 50 51 49 50 51 53 57 59 61 64 65 64 62 58 58 66 73 81 91
32 36 38 39 40 43 46 49 51 50 47 46 47 50 54 54 53 54 58 63 66 68 72 74 74 70 72 64 65 72 76 83
39 39 42 42 44 46 49 51 53 54 55 55 56 59 59 60 61 62 66 71 72 77 82 83 82 83 80 74 70 72 76 81
45 46 46 46 50 52 54 56 61 64 65 65 65 65 68 71 70 74 75 75 80 82 87 91 91 88 87 81 75 73 80 86
53 53 57 58 62 65 63 64 68 71 68 68 70 72 73 76 77 78 80 81 83 87 92 94 95 95 90 83 77 76 81 83
60 63 66 66 68 71 72 72 75 76 77 78 79 80 83 86 87 88 88 92 94 94 99 101 101 98 92 86 82 80 80 81
67 69 67 70 70 71 76 78 77 79 81 83 84 87 90 94 98 101 99 101 101 104 105 104 104 92 89 82 81 81 82 79
69 71 71 72 74 78 80 83 86 88 90 92 96 97 96 100 103 105 107 109 110 112 111 110 97 88 84 81 77 76 77 78
75 74 76 78 81 85 87 91 96 99 102 104 106 108 108 108 111 114 117 120 121 116 113 99 91 86 81 76 70 68 69 68

GFSFLT2_250_spd_003.txt.gz
Wind_Speed
44 42 39 36 36 37 36 36 32 29 30 30 29 30 29 29 32 38 44 47 49 50 52 59 59 56 55 57 66 60 56 49
22 20 21 16 14 15 14 15 17 17 17 18 20 21 23 25 26 28 32 41 46 49 51 58 61 59 52 56 63 65 60 64
8 9 11 11 9 8 10 15 17 15 16 15 13 15 18 22 23 26 29 33 35 41 54 59 62 59 59 59 66 70 67 64
14 15 16 18 19 17 16 20 23 24 23 26 24 24 22 18 19 21 28 32 36 39 44 51 63 65 60 62 62 71 70 71
21 22 22 23 23 23 21 21 21 20 19 21 20 21 20 20 20 21 18 19 30 39 44 47 53 59 67 66 63 65 76 74
21 22 23 24 25 24 22 20 17 15 16 17 14 16 17 15 18 18 19 20 20 19 26 39 47 52 59 62 70 65 64 78
20 21 21 22 23 25 25 23 22 23 22 17 18 18 18 20 23 25 25 25 21 18 18 22 28 36 47 60 65 73 71 67
20 21 20 23 26 27 28 27 27 27 28 27 26 25 25 26 27 27 27 25 23 26 27 21 17 21 28 37 48 55 71 77
20 22 24 24 27 27 27 29 31 35 36 35 33 31 32 35 36 34 34 34 33 34 33 30 33 35 31 30 30 37 50 57
24 24 23 25 27 30 32 32 32 33 38 37 35 35 34 36 37 39 41 43 43 42 41 43 43 43 44 42 45 42 39 48
31 32 33 33 35 35 35 38 40 40 40 42 42 43 43 44 46 48 48 49 50 51 52 53 55 54 53 53 53 54 53 53
35 37 38 39 39 42 45 46 46 50 50 49 50 53 54 54 52 52 52 54 56 58 60 62 64 64 64 64 63 62 60 59
40 40 39 41 45 48 52 55 56 57 57 53 53 56 58 58 59 61 61 61 62 65 68 68 68 68 69 69 70 69 68 65
46 47 46 46 48 52 57 60 60 61 62 60 60 62 64 65 67 68 68 68 70 73 76 78 78 78 78 81 80 78 74 74
53 55 56 59 59 60 61 62 62 65 67 69 70 71 72 72 75 76 77 79 81 82 83 87 90 89 88 87 88 87 85 86
61 63 65 67 66 65 66 67 68 69 72 75 78 81 82 85 87 88 89 91 91 90 90 91 93 96 96 97 98 99 94 91
62 65 68 68 69 68 70 72 76 78 80 83 85 88 91 93 97 99 100 102 102 101 103 103 104 105 103 101 105 103 97 93
65 67 67 69 72 75 78 80 82 86 90 93 96 98 101 102 103 104 108 109 111 109 107 104 102 101 101 99 98 97 95 94
66 68 72 76 79 83 86 90 95 98 102 104 107 108 109 111 113 114 113 112 109 104 100 99 95 94 95 95 95 91 88 88
73 76 81 84 85 90 94 98 103 108 112 114 116 114 114 116 112 108 105 104 101 97 95 92 90 90 89 87 84 83 83 82

GFSFLT2_250_spd_006.txt.gz
Wind_Speed
55 53 49 45 41 37 29 25 24 23 25 25 24 24 27 28 28 26 26 27 29 34 38 40 42 44 49 48 46 50 48 51
40 32 22 20 15 12 9 10 9 9 11 13 12 13 13 17 20 22 23 24 25 26 31 39 44 46 51 48 48 46 54 54
8 10 9 9 8 7 8 11 12 12 13 13 13 14 13 14 16 17 17 18 22 24 27 31 38 45 50 53 45 45 50 55
11 12 15 16 20 18 19 20 20 20 21 20 21 22 19 17 18 17 17 14 11 13 23 29 32 35 43 49 56 44 48 53
15 17 17 17 18 18 17 17 16 21 23 20 21 20 19 17 19 22 23 21 18 13 11 12 18 31 38 42 49 54 54 54
20 20 19 22 25 23 23 22 20 23 25 28 27 26 26 25 26 27 27 26 24 22 19 16 18 18 24 34 40 48 52 56
18 22 24 25 26 27 27 27 27 26 28 29 32 31 30 30 30 31 30 30 29 23 22 22 18 17 17 20 23 30 42 55
20 22 24 25 26 26 28 29 29 28 29 29 30 31 30 30 30 32 32 33 34 33 34 33 30 26 23 24 25 22 25 28
28 27 28 30 31 30 30 30 31 32 34 35 36 38 38 37 37 38 39 39 40 41 40 40 40 38 36 36 35 35 35 35
25 26 29 32 33 34 33 33 34 37 39 42 43 42 43 43 43 42 42 43 43 42 43 44 45 46 47 49 50 48 46 45
35 37 39 41 42 42 44 46 47 49 49 49 48 45 45 47 48 50 51 52 54 53 53 53 53 54 54 55 55 56 56 54
43 43 44 47 47 49 50 53 54 53 52 52 53 54 56 57 57 59 59 61 62 63 64 65 65 63 63 64 65 65 65 63
47 48 50 53 54 55 56 57 60 61 60 61 60 61 62 63 65 67 67 66 68 70 72 73 74 74 73 75 75 75 76 74
54 53 55 55 58 59 58 58 59 62 65 68 69 69 70 71 73 75 77 79 80 82 82 83 83 84 84 84 82 83 84 82
60 58 61 62 60 61 62 63 66 69 72 74 76 79 80 82 84 87 91 93 95 96 97 97 96 95 96 95 92 92 94 94
58 61 61 62 63 64 67 71 72 74 77 80 83 87 90 93 96 97 100 103 105 105 106 104 104 101 102 104 108 104 101 100
58 60 63 65 70 72 73 76 79 82 87 89 91 94 98 102 107 109 108 108 107 106 107 106 102 101 99 99 100 103 99 96
63 66 69 74 77 81 84 88 92 94 97 100 103 104 106 109 111 111 110 109 108 107 103 100 94 94 97 95 93 95 96 99
66 71 76 80 84 87 90 93 95 100 103 103 105 107 108 110 111 110 106 107 106 101 97 92 85 82 81 82 82 84 85 88
72 77 82 84 87 90 94 98 101 102 106 110 110 111 113 112 110 108 106 102 98 96 90 84 77 73 75 74 75 77 79 80

GFSFLT2_250_spd_009.txt.gz
Wind_Speed
67 53 48 38 33 31 28 27 22 21 22 23 22 20 18 14 13 14 17 19 20 22 22 22 25 28 33 37 39 42 44 39
46 37 39 30 28 25 21 19 20 20 23 22 23 20 18 17 16 15 16 16 16 16 18 19 19 20 27 33 35 40 44 40
26 23 22 23 24 24 23 22 23 24 25 26 26 26 28 27 24 22 23 23 21 19 19 21 20 20 19 23 34 36 41 43
18 21 20 21 21 20 21 20 20 21 23 24 26 25 24 25 26 26 25 25 24 21 18 20 20 21 22 23 24 32 41 45
14 14 15 17 19 20 21 21 21 22 21 21 23 26 26 25 25 24 25 26 24 24 22 20 19 22 21 21 27 28 32 44
10 16 18 21 22 24 23 23 21 19 19 21 24 26 27 28 27 26 25 26 26 26 25 23 22 24 24 23 21 22 29 36
21 25 26 27 29 30 30 27 27 28 28 28 29 31 34 35 34 33 32 31 31 31 30 28 26 30 31 28 27 26 22 24
29 28 28 30 32 33 35 36 37 36 36 38 41 42 42 41 39 38 37 37 37 35 35 35 35 35 35 35 33 34 32 31
32 32 33 35 35 37 40 42 43 44 45 45 47 46 46 46 45 43 41 42 42 43 43 42 42 41 41 42 42 41 42 42
29 31 38 39 42 44 44 46 48 47 48 49 48 47 46 47 48 48 48 49 51 52 51 51 52 52 51 50 50 49 50 51
40 42 44 46 50 48 46 48 49 48 47 47 47 47 50 53 54 55 56 57 58 58 59 59 60 61 62 60 60 59 59 58
46 48 47 47 50 50 49 50 53 54 54 55 56 58 59 61 62 63 63 63 65 66 69 72 72 72 70 69 69 69 68 69
47 49 51 50 52 51 54 57 58 59 60 63 65 68 70 68 68 66 67 69 70 72 73 75 77 79 80 82 81 81 80 80
48 50 50 52 53 56 60 62 64 65 65 67 68 69 71 73 76 80 81 83 86 88 89 90 89 90 91 92 90 91 90 90
49 53 55 58 60 61 62 64 65 68 69 70 71 74 78 80 82 83 88 92 94 97 99 98 98 97 96 96 96 92 94 95
56 58 60 61 63 66 69 71 71 72 72 74 80 83 84 87 88 89 92 95 96 98 100 101 101 98 96 96 94 94 92 93
58 61 62 65 69 72 74 75 76 76 82 84 86 89 92 94 96 96 96 98 103 101 99 99 102 100 97 95 95 92 92 89
59 65 69 72 76 79 79 79 81 85 88 91 94 97 99 100 101 104 106 109 110 105 101 101 101 100 97 95 93 89 85 88
68 72 74 76 76 77 79 84 91 94 98 100 101 104 106 109 111 111 115 114 113 105 102 101 100 99 95 91 88 85 82 81
69 70 71 76 81 86 91 95 97 102 107 110 113 116 117 119 117 116 115 111 105 99 96 97 96 94 91 88 84 79 76 74

GFSFLT2_250_spd_012.txt.gz
Wind_Speed
76 64 51 42 24 21 20 20 22 20 21 22 24 25 27 28 27 26 25 27 27 26 24 23 24 20 18 19 23 26 29 30
47 30 24 16 17 20 21 20 20 21 21 21 22 23 22 24 23 23 24 25 25 25 26 23 25 24 22 20 19 23 27 29
17 13 11 12 16 17 18 20 21 21 21 21 21 21 21 21 23 25 26 24 24 22 22 23 23 23 19 19 21 22 23 27
11 12 12 14 15 18 19 20 20 20 20 20 21 23 24 25 28 31 30 28 27 26 24 24 22 23 20 21 18 18 22 25
10 10 13 13 15 17 20 22 23 25 27 27 26 27 32 34 34 34 34 32 31 30 30 29 26 23 24 21 23 23 18 20
12 14 16 19 23 25 26 29 32 33 33 33 34 36 38 38 38 37 36 36 37 35 34 32 30 30 29 28 28 27 25 22
14 19 21 25 29 32 34 38 39 40 40 40 40 40 40 40 39 38 37 38 38 37 37 37 37 35 33 33 32 31 33 31
26 29 33 37 39 41 43 43 43 43 43 42 42 43 42 41 40 42 41 39 38 38 39 42 42 42 42 41 40 37 36 38
33 35 36 41 43 44 44 44 44 45 44 44 45 44 47 48 48 47 49 51 51 50 50 49 48 48 48 49 48 46 44 44
37 40 42 44 44 44 46 46 45 46 47 46 50 51 51 50 51 53 54 56 56 55 55 57 58 58 58 56 55 55 55 55
38 38 42 45 46 47 45 44 46 47 49 52 53 55 55 57 58 61 62 63 63 62 63 62 62 64 65 66 66 66 64 62
37 40 45 44 42 42 44 47 50 53 54 55 58 60 63 66 68 69 68 69 69 70 70 68 65 65 67 70 72 71 73 74
40 45 44 42 45 49 51 53 54 57 60 62 64 67 69 67 65 70 74 73 73 75 78 78 77 78 76 77 76 77 82 82
44 42 44 48 51 52 55 58 60 64 67 68 69 68 67 67 73 76 78 80 83 87 89 90 90 90 89 89 83 86 87 88
44 48 50 51 54 57 61 64 65 66 66 66 68 70 73 76 78 81 82 84 85 88 93 96 97 98 101 98 98 92 97 94
49 49 51 56 60 61 63 63 64 66 69 71 77 81 83 86 90 93 92 95 100 102 103 103 104 101 103 103 100 101 99 99
48 52 56 59 61 65 67 69 70 73 77 79 83 86 88 96 100 104 106 107 111 110 108 109 107 105 105 101 102 98 104 101
54 59 63 66 70 72 74 78 80 83 87 88 90 93 97 102 108 111 116 119 121 117 111 108 106 102 103 104 104 104 98 100
60 65 69 73 78 78 81 83 87 89 94 96 98 100 106 112 116 120 124 127 125 117 109 105 104 101 100 101 101 102 100 96
64 68 71 74 78 82 85 88 89 96 99 103 108 111 115 118 122 125 128 129 121 112 104 98 97 94 92 93 93 92 92 90

GFSFLT2_250_spd_015.txt.gz
Wind_Speed
92 83 79 73 58 41 21 19 17 18 18 18 20 20 22 24 26 30 32 31 31 31 31 31 31 32 30 29 23 20 17 17
80 68 54 37 24 20 17 18 19 20 21 22 23 22 21 21 24 29 30 29 28 28 28 28 28 28 28 29 27 22 19 16
57 45 27 21 20 17 18 20 22 22 24 25 25 25 25 25 28 31 31 31 30 29 26 25 27 27 26 26 26 23 22 17
34 27 22 21 20 21 22 23 24 27 30 31 31 30 30 32 33 34 35 33 32 30 29 28 28 28 28 27 26 26 25 21
24 25 22 21 21 21 23 24 26 29 31 35 36 37 37 37 35 36 36 37 35 34 32 29 28 29 29 30 28 27 28 26
26 29 25 28 29 30 31 32 35 38 39 40 41 40 43 42 40 40 41 39 38 36 35 35 33 32 31 31 32 33 32 31
30 29 31 33 38 38 38 41 43 45 42 43 43 43 44 45 44 44 44 43 41 41 41 42 42 41 40 38 35 35 36 35
31 33 35 38 40 41 45 45 45 44 44 45 46 46 46 47 48 47 48 48 47 48 47 48 49 49 48 48 46 44 42 41
37 39 39 40 41 41 44 47 47 47 46 45 47 46 48 49 50 51 53 53 54 54 55 56 56 56 56 55 55 52 50 49
38 39 39 40 40 40 46 45 43 42 45 48 50 51 52 54 56 56 57 58 57 58 57 57 59 60 60 61 60 61 62 61
39 37 37 40 42 46 46 42 45 47 48 49 51 53 55 57 59 60 60 60 61 61 61 63 66 66 64 65 67 68 66 65
36 38 42 46 45 43 44 47 48 49 51 53 56 58 61 62 63 62 61 60 62 64 62 62 65 68 70 69 72 72 76 76
44 47 43 39 44 47 48 50 52 55 59 60 62 65 64 65 66 65 68 70 70 71 73 76 76 83 83 81 80 86 86 84
42 41 47 48 49 50 52 56 61 64 66 67 69 71 71 72 75 75 75 77 79 78 82 84 86 90 93 95 93 91 96 93
46 48 50 50 52 55 58 62 65 66 67 69 70 71 73 76 79 80 83 84 85 88 91 95 96 99 105 104 103 100 104 106
50 52 52 54 57 60 62 64 66 67 68 72 77 79 81 85 89 91 91 94 95 96 100 102 107 108 112 114 113 111 110 109
52 53 56 60 63 65 66 70 73 76 77 80 83 87 91 94 97 97 100 103 105 108 110 113 116 119 117 118 119 119 115 112
56 58 62 65 67 67 71 77 78 82 86 90 93 97 101 105 107 110 112 115 116 118 121 125 125 128 126 123 119 115 109 104
61 65 67 68 68 72 79 83 87 91 94 98 101 104 107 111 115 118 121 123 126 129 129 130 131 131 127 120 111 102 98 97
66 69 72 73 76 79 86 90 93 97 100 104 108 113 116 119 123 127 130 133 136 136 134 134 126 121 115 107 101 100 97 94

GFSFLT2_250_spd_018.txt.gz
Wind_Speed
99 108 96 87 82 78 64 49 38 27 19 20 22 23 24 25 28 31 32 34 34 33 30 29 28 27 28 29 28 25 24 19
107 95 80 79 65 57 41 30 25 21 18 19 23 26 29 31 31 33 34 34 34 32 30 29 29 29 29 27 28 28 24 22
81 74 63 58 48 37 32 29 27 25 25 26 28 30 32 36 33 34 35 34 32 33 32 30 28 25 26 27 26 26 27 23
66 64 49 41 34 32 30 29 29 28 28 31 33 38 38 38 38 36 36 36 35 35 33 30 30 27 27 26 25 27 25 24
50 40 34 33 33 36 35 35 35 36 39 40 43 42 42 42 41 40 41 38 35 34 34 34 32 32 32 32 34 32 29 27
36 32 32 36 37 37 40 41 44 48 49 47 46 46 45 46 46 45 44 42 43 43 42 40 40 40 39 39 38 39 39 37
32 34 38 41 41 41 43 46 47 44 45 46 49 50 50 49 49 47 47 47 46 46 45 45 45 45 46 47 46 44 43 42
29 35 43 46 46 47 49 49 48 46 47 48 49 49 47 47 47 47 48 49 50 52 53 53 54 53 52 51 51 50 47 44
32 22 50 50 51 52 49 46 46 47 50 49 46 47 49 51 51 51 52 55 56 58 59 59 57 56 55 54 52 55 54 51
37 41 46 52 46 43 44 46 50 50 47 47 50 52 51 54 56 57 56 57 58 58 58 58 58 59 58 59 59 60 54 53
41 41 43 45 46 48 48 49 48 48 52 51 52 53 56 59 59 61 62 60 59 60 62 62 65 64 65 65 64 65 65 65
38 44 45 49 44 46 47 50 52 53 54 54 58 58 60 61 62 63 61 62 64 64 66 68 72 71 69 70 72 72 72 73
43 48 48 45 47 52 52 52 51 55 58 60 64 64 66 67 66 68 68 70 72 74 76 78 80 83 84 80 78 78 80 80
45 48 48 51 56 55 56 55 58 62 64 65 64 65 69 71 74 76 78 80 81 83 85 86 87 90 92 93 90 88 91 93
49 51 51 57 57 57 60 63 66 68 69 72 71 71 78 81 84 86 87 89 90 93 97 98 96 98 103 105 104 101 102 102
54 55 56 62 64 64 66 68 73 74 76 75 77 81 86 89 93 95 97 99 100 101 104 107 109 108 109 114 118 117 116 110
58 58 61 64 66 68 69 71 73 75 78 81 84 88 93 98 99 101 105 107 108 111 114 116 118 120 122 122 125 127 124 120
59 64 68 69 66 71 77 77 81 84 88 90 94 97 102 105 108 112 115 115 120 122 124 126 127 130 132 128 124 120 116 113
64 69 72 74 75 76 77 81 85 88 93 96 99 104 109 112 114 120 125 127 129 131 133 133 133 131 130 125 115 109 104 102
60 68 72 75 76 80 82 85 89 94 99 104 108 113 118 123 126 129 133 135 136 134 132 127 123 115 110 107 104 103 100 97

GFSFLT2_250_spd_021.txt.gz
Wind_Speed
97 100 104 103 98 92 80 70 61 52 43 37 30 29 27 26 28 30 30 33 34 34 31 30 28 27 25 22 21 19 15 18
100 100 101 99 88 70 67 54 47 40 35 35 31 32 31 31 34 36 35 36 37 36 34 32 32 30 27 25 23 22 18 18
94 96 90 78 71 60 53 48 40 36 34 38 39 39 38 41 42 43 43 43 41 37 36 36 35 32 30 29 27 28 25 23
93 83 70 65 57 50 45 40 39 40 41 42 45 46 46 50 50 50 49 47 44 41 39 37 36 35 33 32 31 30 29 28
79 63 54 50 44 41 40 42 42 43 46 46 49 51 51 53 52 48 48 47 45 43 41 39 40 39 37 36 36 35 34 33
62 46 37 34 40 42 47 47 45 48 52 52 54 54 53 52 51 47 44 43 44 45 47 46 45 44 45 45 44 45 45 44
41 36 37 34 47 44 38 46 48 51 54 55 54 54 52 53 51 46 45 48 50 49 49 50 51 51 48 47 48 47 47 46
29 33 46 37 36 38 53 59 53 51 51 50 52 56 52 49 47 49 48 48 50 52 53 53 53 51 51 49 48 50 49 49
26 13 46 38 37 49 51 54 49 49 51 54 55 54 50 54 52 51 53 55 55 55 55 54 53 52 52 52 51 52 55 54
32 34 39 41 50 50 51 52 56 53 48 49 52 56 59 56 58 58 59 59 58 58 59 58 58 55 55 57 57 59 57 57
32 33 35 39 47 50 53 54 52 51 56 55 54 54 56 60 63 64 65 65 64 65 65 66 64 65 65 65 65 66 67 67
30 30 33 42 48 53 53 51 54 60 60 60 60 60 64 67 69 69 72 71 69 71 73 73 75 76 76 76 75 76 76 76
39 38 41 44 49 55 56 56 59 63 63 63 62 63 66 71 72 73 72 73 76 80 82 82 84 88 86 85 84 87 87 89
43 45 48 51 56 59 59 62 65 68 68 65 67 68 72 74 75 76 78 80 82 85 89 92 93 97 97 96 93 94 95 94
48 51 54 56 58 60 61 66 69 69 72 73 76 78 79 81 84 86 87 90 92 95 96 99 102 106 110 108 106 104 102 104
52 53 56 61 61 61 63 66 69 72 75 77 81 84 86 90 92 93 97 100 103 106 108 110 114 114 116 119 120 119 117 110
56 58 60 59 60 66 68 70 74 79 82 85 87 90 95 99 100 103 106 110 116 120 123 124 124 123 121 120 124 126 124 112
61 63 62 62 64 66 67 72 79 85 88 90 94 98 103 106 110 111 114 120 125 127 128 129 127 123 123 122 119 117 118 113
58 63 67 68 71 73 75 80 85 89 92 96 100 105 109 112 116 122 127 131 133 132 131 127 125 120 116 109 106 100 97 96
56 59 65 71 75 79 84 89 93 96 99 105 110 114 116 121 128 133 132 133 132 128 126 123 116 110 107 103 96 93 92 87

GFSFLT2_250_spd_024.txt.gz
Wind_Speed
88 90 97 97 95 99 102 101 97 85 63 57 51 44 39 40 39 38 38 37 40 42 46 46 44 42 39 35 33 28 27 26
88 92 91 93 95 98 95 88 69 57 52 49 44 42 39 42 43 44 45 47 48 50 52 50 45 43 41 37 36 33 29 29
91 93 94 93 95 92 88 72 50 49 46 47 45 43 45 47 46 46 49 51 52 51 47 47 44 43 40 39 36 36 32 32
95 98 97 94 87 82 63 51 45 44 47 46 46 49 51 51 52 52 51 51 50 49 46 44 41 39 40 41 40 38 37 37
95 93 85 77 71 55 45 45 44 45 47 45 46 48 53 56 55 53 50 50 50 42 40 42 43 42 42 43 44 44 44 43
81 75 64 59 49 41 44 46 49 44 45 48 50 49 49 49 47 48 50 50 44 44 46 45 45 46 48 49 48 47 47 46
67 60 52 46 35 36 42 45 49 44 48 51 56 51 51 50 51 48 45 45 47 47 47 50 52 52 52 51 51 52 50 46
56 49 49 38 37 38 43 47 53 50 54 56 57 57 54 48 51 50 50 51 49 49 52 54 56 56 56 55 54 54 54 53
49 43 42 42 45 51 52 51 52 53 54 56 61 60 56 58 58 56 56 56 56 56 58 61 61 61 61 60 60 58 57 57
42 40 44 48 49 53 60 62 54 50 57 60 57 56 59 61 62 63 61 59 61 62 64 65 65 65 64 65 64 64 62 63
44 44 44 46 50 52 52 51 54 56 57 58 58 59 61 64 67 66 64 65 67 68 69 70 70 71 70 70 72 73 72 72
43 42 43 48 48 51 54 57 59 62 64 65 64 64 64 66 67 66 67 69 71 75 78 78 77 77 78 79 81 82 83 84
46 47 49 51 54 54 56 60 63 65 67 69 66 66 66 67 68 70 73 76 79 81 82 84 86 86 85 84 85 88 89 91
46 48 50 51 52 56 62 65 67 68 70 69 70 72 74 77 77 79 83 85 88 89 89 90 93 93 94 94 91 94 97 100
48 47 46 50 56 61 65 68 72 73 73 75 78 79 80 82 84 88 90 90 91 94 95 98 101 103 105 105 104 105 105 109
50 51 53 55 59 64 67 68 69 72 75 79 83 84 87 90 92 94 97 100 103 105 107 109 112 113 116 117 119 120 120 113
49 52 55 59 61 63 66 68 70 74 80 86 91 95 98 100 102 105 107 111 114 117 120 122 125 127 126 125 126 128 124 115
52 51 54 56 59 62 66 69 74 78 84 89 93 97 101 103 106 110 114 119 123 128 131 133 133 132 129 127 123 118 114 110
55 55 57 60 62 66 70 74 78 82 87 92 98 103 107 111 115 118 123 128 133 135 134 131 132 131 128 123 117 110 104 97
55 59 63 65 69 73 76 79 84 88 94 100 104 110 114 118 121 126 131 132 129 127 126 127 126 122 118 113 108 102 99 95

GFSFLT2_250_spd_027.txt.gz
Wind_Speed
89 91 89 91 93 89 94 91 93 102 100 93 88 72 63 51 48 43 43 45 47 48 50 52 52 54 50 49 46 42 40 37
86 87 87 93 93 94 93 96 99 95 89 74 64 62 54 50 45 44 44 46 49 51 55 53 51 52 49 45 43 37 36 37
87 88 87 86 91 92 96 96 91 81 72 65 58 52 50 50 47 45 45 49 53 53 53 51 50 47 41 39 38 38 39 39
84 84 84 88 89 90 87 82 78 63 61 56 56 53 53 46 45 49 48 49 46 44 45 48 48 41 41 42 42 42 41 43
83 86 89 90 90 85 84 78 64 58 54 56 54 55 56 51 48 51 51 53 50 49 49 46 44 47 46 44 45 46 47 47
88 92 91 90 81 83 73 61 60 53 53 52 51 52 56 56 52 55 55 53 46 48 49 51 51 49 47 50 51 52 52 52
90 94 92 88 78 73 63 59 56 56 53 56 56 60 60 54 58 57 60 55 53 51 50 53 54 53 52 55 57 58 59 58
85 84 77 70 69 60 53 51 49 55 58 60 61 65 61 64 61 59 58 55 56 55 55 56 56 55 58 61 63 63 62 61
74 81 65 55 55 52 53 51 56 60 63 64 62 63 62 63 63 62 61 59 60 60 60 59 57 57 59 64 66 67 69 69
61 56 53 51 52 52 51 55 61 63 62 65 62 58 61 64 68 71 69 64 63 64 64 63 63 63 64 67 69 71 72 72
40 40 44 50 57 59 62 65 62 61 65 62 62 62 65 68 70 71 73 69 70 70 71 70 69 69 71 74 77 79 79 78
36 44 45 54 59 64 66 63 67 69 67 65 66 68 69 71 72 74 72 72 75 76 76 77 77 76 78 79 81 84 86 87
44 45 49 57 58 64 71 69 70 70 66 67 70 72 74 75 74 74 75 76 77 80 81 82 85 87 87 86 86 86 87 90
51 54 56 55 60 65 66 66 67 67 68 71 73 75 75 76 76 76 78 81 85 87 88 90 92 94 93 94 93 94 96 98
52 53 54 57 60 63 64 65 67 69 72 73 75 78 79 79 81 84 87 89 93 96 98 101 103 104 104 104 104 103 103 107
51 50 53 56 59 62 64 66 67 69 72 75 78 80 82 85 88 92 96 100 104 108 110 112 112 113 115 116 117 116 115 113
50 53 55 58 61 64 66 68 71 75 77 79 82 86 89 92 97 102 106 108 113 115 117 119 119 122 120 119 120 121 122 119
51 53 55 58 60 63 67 71 74 76 78 81 85 89 95 99 104 107 111 115 118 119 121 123 125 123 122 125 123 120 118 117
51 56 58 61 64 67 71 73 76 79 83 87 92 96 101 105 110 114 118 123 124 124 122 122 121 121 124 123 119 115 107 101
56 59 63 66 69 71 74 76 78 82 87 91 96 103 107 113 116 120 121 126 125 122 121 121 121 122 122 117 109 103 98 94

GFSFLT2_250_spd_030.txt.gz
Wind_Speed
80 82 80 84 87 88 90 89 90 89 89 91 93 97 93 86 82 79 68 63 55 54 48 49 52 52 52 50 48 47 44 39
81 83 86 86 86 86 88 87 85 85 94 96 95 91 83 77 73 69 57 51 47 46 49 50 49 49 45 44 45 44 40 37
85 86 84 86 88 90 85 83 84 96 94 94 87 80 72 67 68 59 55 51 50 53 52 51 52 50 47 45 43 40 41 40
85 85 86 88 91 84 90 93 95 94 89 76 77 79 72 66 61 60 55 52 53 51 54 54 52 48 48 47 46 47 47 41
84 82 85 78 83 85 86 89 87 86 79 75 72 72 67 64 55 55 60 58 51 52 56 55 52 50 50 48 46 46 47 47
81 78 79 83 85 88 86 85 80 77 71 72 61 61 62 58 62 62 61 61 57 58 57 53 52 53 53 53 51 50 49 50
77 74 78 81 86 84 76 74 67 66 64 61 61 62 63 64 67 68 68 64 60 61 61 61 59 58 57 56 57 57 54 54
81 81 85 84 82 77 73 69 67 66 62 59 63 64 65 70 71 68 68 62 60 63 67 68 66 64 63 62 62 61 60 59
81 84 87 79 76 65 66 65 65 62 56 57 61 65 68 69 66 69 69 67 68 67 68 70 70 71 68 67 66 68 67 65
79 73 67 59 58 57 58 63 61 58 60 64 65 67 68 71 74 72 70 69 69 71 72 74 74 72 70 72 72 72 72 73
57 52 43 50 51 53 62 65 65 65 67 68 70 72 76 77 75 72 71 72 74 76 78 78 75 73 73 73 75 78 78 79
44 38 41 50 51 64 64 66 67 69 70 72 75 79 77 74 72 72 75 77 79 80 79 79 78 76 77 79 82 85 86 87
36 32 49 54 64 67 70 72 74 75 75 75 78 77 76 75 75 76 78 79 78 79 81 82 84 85 86 87 89 90 92 95
37 45 50 56 60 67 74 74 73 75 75 76 77 76 76 76 77 78 80 83 84 84 85 87 89 90 91 93 95 96 99 102
52 55 58 61 63 67 71 70 71 72 74 74 75 77 78 80 82 83 85 88 89 90 93 95 96 101 103 104 104 105 105 107
55 57 59 61 65 69 67 69 70 71 73 75 77 80 83 84 86 88 90 92 95 98 101 105 108 112 115 119 119 119 117 116
45 48 51 57 62 63 65 69 71 73 75 78 79 81 84 87 88 91 95 98 103 107 111 115 118 120 124 125 125 123 126 126
48 51 53 58 61 64 67 69 71 73 76 79 82 84 87 91 94 97 102 105 108 114 119 122 125 126 127 125 124 122 121 118
53 54 57 59 62 65 67 69 72 75 77 80 84 88 91 95 99 103 108 113 119 123 125 126 124 123 123 121 119 119 116 109
53 56 58 60 62 65 68 72 74 76 78 82 87 91 95 100 105 110 116 119 122 127 127 124 121 121 121 118 116 112 107 100